Regional Weather Roundup
Issued by NWS Cleveland, OH

Home | Current Version | Previous Version | Graphics & Text | Print | Product List | Glossary On
Versions: 1 2 3 4 5 6 7 8 9 10 11 12 13 14 15 16 17 18 19 20 21 22 23 24 25 26 27 28 29 30 31 32 33 34 35 36 37 38 39 40 41 42 43 44 45 46 47 48 49 50
000
ASUS41 KCLE 280802
RWRCLE
OHIO REGIONAL WEATHER ROUNDUP
NATIONAL WEATHER SERVICE CLEVELAND, OH
300 AM EST SUN DEC 28 2014

NOTE: "FAIR" INDICATES FEW OR NO CLOUDS BELOW 12,000 FEET WITH NO
SIGNIFICANT WEATHER AND/OR OBSTRUCTIONS TO VISIBILITY.

OHZ001>008-015>018-024>027-034-035-043-044-280900-
   NORTHWEST OHIO

CITY           SKY/WX    TMP DP  RH WIND       PRES   REMARKS
DEFIANCE       CLOUDY    36  30  79 NW16      30.06R
FINDLAY        CLOUDY    36  33  89 W9        30.03R
TOLEDO EXPRESS CLOUDY    35  30  82 W10G17    30.03R WCI  27
TOLEDO EXEC    CLOUDY    37  31  78 W9        30.03R
LIMA           CLOUDY    36  33  89 W12       30.04R
$$

OHZ009>014-019>023-028>033-038-089-280900-
   NORTHEAST OHIO

CITY           SKY/WX    TMP DP  RH WIND       PRES   REMARKS
CLE-HOPKINS    LGT RAIN  36  33  89 W13G23    30.02R
CLE-LAKEFRONT  MIX PCPN  37  34  89 W14       30.00R
CUY CO. ARPT   NOT AVBL
LORAIN-ELYRIA  MIX PCPN  36  34  92 NW14      30.01R
ASHTABULA      LGT RAIN  37  35  92 NW10      29.97R
AKRON-CANTON   LGT RAIN  43  39  86 NW10      29.95F FOG
WOOSTER        LGT RAIN  40  38  93 NW14      29.98R
MANSFIELD      CLOUDY    37  36  96 MISG      30.00R
YOUNGSTOWN     LGT RAIN  46  44  93 W9        29.94S FOG
$$

OHZ042-051>053-060>062-070>072-077>081-280900-
  SOUTHWEST OHIO

CITY           SKY/WX    TMP DP  RH WIND       PRES   REMARKS
CINC-COVINGTON CLOUDY    42  37  82 NW16      30.05R
CINC-LUNKEN    CLOUDY    43  42  97 NW9       30.07R
HAMILTON       CLOUDY    41  38  89 NW13      30.08R
DAYTON         CLOUDY    37  34  89 NW14      30.06R
WRIGHT-PAT AFB CLOUDY    38  36  92 NW7       30.05R
DAYTON GENERAL CLOUDY    39  36  89 NW14G20   30.04R
WILMINGTON     LGT RAIN  46  44  93 W7        30.01R
$$

OHZ036-037-039>041-045>050-054>059-063>069-073>076-082>088-280900-
  CENTRAL AND SOUTHEAST OHIO

CITY           SKY/WX    TMP DP  RH WIND       PRES   REMARKS
COLUMBUS       LGT RAIN  44  42  93 NW13      29.99R
OSU AIRPORT    LGT RAIN  41  39  93 NW12      30.01R
BOLTON FIELD   NOT AVBL
RICKENBACK AFB LGT RAIN  45  45  99 SW5       29.99F
NEWARK         LGT RAIN  47  45  93 SW5       29.98S
MARION         CLOUDY    37  35  92 NW9       30.02R
LANCASTER      RAIN      47  46  97 S5        29.98F FOG
ZANESVILLE     LGT RAIN  46  44  93 SW5       30.00R
NEW PHILLY     RAIN      47  45  93 VRB3      29.96F FOG
$$


USA.gov is the U.S. government's official web portal to all federal, state and local government web resources and services.